COSMOS 2251 DEB, 33980

Orbit data source: Space-Track

COSMOS 2251 DEB, 33980 is space debris in LEO originally from a launch on Wed, 16 Jun 1993 UTC launched from the Plesetsk Missile And Space Complex (PKMTR). The debris from Iridium 33, an American commercial communications satellite, has been tracked extensively since its accidental collision with the defunct Russian satellite Cosmos 2251 in 2009. This event, occurring at high speed in low Earth orbit (LEO), generated thousands of pieces of space debris, significantly increasing the risk of further collisions. The Iridium 33 debris cloud has impacted space traffic management and orbital debris mitigation strategies, making it a subject of ongoing study in space situational awareness.

Loading next visibility...
Identifier
33980, 1993-036FP
Orbit
LEO
Country
Flag of CISCIS
Related business
Manufacturer
Unknown
Mission
Spacecraft
Bus & Motor
Unknown
Mass
Unknown
Launch date (UTC)
1993-06-16 (33 years ago)
Launch vehicle
Unknown
Launch site
Plesetsk Missile And Space Complex (PKMTR)
Object type
Payload
Rocket body
Debris
Shape & HBR
Unknown shape, 0.2 m
Radar Cross Section
Small (<0.1 m²)

Expand to show TLE details & history
Last TLE update: 9 hours ago

TLE from 9 hours ago
0 COSMOS 2251 DEB
1 33980U 93036FP  26104.49375687  .00001293  00000-0  27725-3 0  9997
2 33980  74.0197 185.2689 0030051 295.8667  83.6294 14.59488970905858
Epoch: 2026-04-14T11:51Z
TLE epoch observation values (Epoch: 2026-04-14T11:51:00.593Z)
Latitude
19.04603°
Longitude
170.49033°
Altitude
694.674 km
Speed
7.512 km/s
True Right ascension
12h 43m 38s
True Declination
18° 56' 21"
Sunlit
Object was in full shadow at epoch
Visualization orbit readout
Latitude
Unknown
Longitude
Unknown
Altitude
Unknown
Speed
Unknown
Apparent Right ascension
Unknown
Apparent Declination
Unknown
Sunlit
N/A
Visualization observer readout
Local Sidereal Time
03:35:24
Azimuth
Unknown
Elevation
Unknown
Doppler factor
Unknown
Orbital elements
Apogee altitude
713.672 km
Perigee altitude
671.176 km
Semi-major axis
7,070.561 km
Eccentricity
0.00301
Inclination
74.0197°
RAAN
185.2689°
Arg. of periapsis
295.8667°
True anomaly
83.97177°
Mean anomaly
83.6294°
Eccentric anomaly
83.80057°
Mean motion
3.65058 °/min
Orbital period
98.61 mins
BSTAR
0.00027725

Documentation

Showing up to 5 results
|